#timestamp,LO_Frequency,Hit,StdDev 
1610690415.2,286047002.4,N
1610690435.0,286047001.4,N
1610690435.9,286047001.4,N
1610690455.8,286047001.4,N
1610690475.6,286047004.4,Y
1610690495.5,286047000.0,P
1610690515.3,286047000.2,N
1610690535.1,286047000.5,N
1610690555.9,286047000.6,N
1610690575.7,286047002.0,N
1610690595.6,286047000.2,N
1610690615.4,286047002.6,Y
1610690635.2,286046998.2,P
1610690655.1,286046999.4,N
1610690656.0,286046999.4,N
1610690675.8,286046999.9,N
1610690695.7,286047002.5,N
1610690715.5,286047004.3,Y
1610690735.3,286047006.0,P
1610690755.2,286047003.0,N
1610690775.0,286047002.4,N
1610690775.9,286047002.4,N
1610690795.7,286047001.2,N
1610690815.6,286046998.7,N
1610690835.4,286046998.9,N
1610690855.3,286047002.4,N
1610690875.1,286047000.1,N
1610690895.8,286046999.8,N
1610690915.7,286047000.2,N
1610690935.5,286047000.2,N
1610690955.4,286047004.3,N
1610690975.2,286047001.7,N
1610690995.0,286047003.4,N
1610690995.9,286047003.4,N
1610691015.8,286047005.8,N
1610691035.6,286047005.9,N
1610691055.4,286047001.5,N
1610691075.3,286047002.3,N
1610691095.1,286047002.8,N
1610691115.9,286047000.1,N
1610691135.7,286046999.8,N
1610691155.5,286047003.1,N
1610691175.4,286047005.2,N
1610691195.2,286047005.4,N
1610691215.1,286047003.0,N
1610691216.0,286047003.0,N
1610691235.8,286047003.2,N
1610691255.6,286047003.1,N
1610691275.5,286047003.0,N
1610691295.3,286047004.1,N
1610691315.1,286047001.6,N
1610691335.9,286047002.1,N
1610691355.7,286046999.8,N
1610691375.6,286047002.5,N
1610691395.4,286047000.2,N
1610691415.2,286047000.8,N
1610691435.1,286047002.1,N
1610691436.0,286047002.1,N
1610691455.8,286047001.5,N
1610691475.6,286047000.0,N
1610691495.5,286047000.6,N
1610691515.3,286047001.0,N
1610691535.2,286047000.9,N
1610691555.9,286047002.5,N
1610691575.7,286047000.2,N
1610691595.6,286047001.1,N
1610691615.4,286047001.2,N
1610691635.3,286046998.5,N
1610691655.1,286047000.0,N
1610691656.0,286047000.0,N
1610691675.8,286046998.6,N
1610691695.7,286046998.5,N
1610691715.5,286046999.0,N
1610691735.3,286046998.3,N
1610691755.2,286046999.0,N
1610691775.0,286047000.9,N
1610691775.9,286047000.9,N
1610691795.8,286047002.4,N
1610691815.6,286047002.1,N
1610691835.4,286047000.2,N
1610691855.3,286046999.4,N
1610691875.1,286046998.3,N
1610691895.9,286046997.0,N
1610691915.7,286046999.0,N
1610691935.5,286047001.5,N
1610691955.4,286047001.3,N
1610691975.2,286047002.5,N
1610691995.0,286046999.8,N
1610691996.0,286046999.8,N
1610692015.8,286046999.8,N
1610692035.6,286047002.1,N
1610692055.5,286047002.5,N
1610692075.3,286047002.1,N
1610692095.1,286047002.6,N
1610692115.9,286047001.6,N
1610692135.7,286047002.4,N
1610692155.6,286047002.5,N
1610692175.4,286047001.4,N
1610692195.2,286047001.9,N
1610692215.1,286047002.6,N
1610692216.0,286047002.6,N
1610692235.8,286047001.8,N
1610692255.6,286047001.9,N
1610692275.5,286047002.6,N
1610692295.3,286047002.8,N
1610692315.2,286046999.9,N
1610692335.9,286047000.2,N
1610692355.7,286046998.5,N
1610692375.6,286047000.3,N
1610692395.4,286047000.0,N
1610692415.3,286047000.5,N
1610692435.1,286047000.6,N
1610692436.0,286047000.6,N
1610692455.8,286047002.2,N
1610692475.7,286047004.1,Y
1610692495.5,286047001.4,P
1610692515.4,286047001.3,P
1610692535.2,286047001.7,P
1610692555.0,286047004.3,Y
1610692555.9,286047004.3,P
1610692575.8,286047002.7,N
1610692595.7,286047002.2,N
1610692615.5,286047003.7,Y
1610692635.3,286046998.2,P
1610692655.2,286046996.5,N
1610692675.0,286046995.3,N
1610692675.9,286046995.3,N
1610692695.8,286046995.0,N
1610692715.6,286046995.4,N
1610692735.4,286046999.3,N
1610692755.3,286046999.2,N
1610692775.1,286046996.6,N
1610692795.8,286046997.6,N
1610692815.7,286046997.8,N
1610692835.5,286046997.9,N
1610692855.4,286046996.1,N
1610692875.2,286046993.3,Y
1610692895.0,286046997.7,P
1610692895.9,286046997.7,P
1610692915.8,286046997.9,P
1610692935.6,286046997.8,Y
1610692955.5,286047002.4,P
1610692975.3,286047001.6,N
1610692995.1,286047001.9,N
1610693015.9,286047002.3,N
1610693035.7,286047002.4,N
1610693055.5,286047002.4,N
1610693075.4,286047002.1,N
1610693095.2,286047002.6,N
1610693115.1,286047002.0,N
1610693116.0,286047002.0,N
1610693135.8,286047002.2,N
1610693155.6,286047003.5,N
1610693175.5,286047003.7,N
1610693195.3,286047002.2,N
1610693215.2,286047004.1,Y
1610693235.9,286047002.3,P
1610693255.7,286047002.0,P
1610693275.6,286047000.9,P
1610693295.4,286046998.6,N
1610693315.2,286046998.1,N
1610693335.1,286047000.7,N
1610693336.0,286047000.7,N
1610693355.8,286046999.1,N
1610693375.7,286046996.9,N
1610693395.5,286047001.2,N
1610693415.3,286047002.2,N
1610693435.2,286047000.5,N
1610693455.0,286047000.6,N
1610693455.9,286047000.6,N
1610693475.8,286047000.2,N
1610693495.6,286047000.2,N
1610693515.4,286047000.6,N
1610693535.3,286047002.2,N
1610693555.1,286047000.1,N
1610693575.9,286047002.8,N
1610693595.7,286047004.1,N
1610693615.5,286047004.0,N
1610693635.4,286047001.4,N
1610693655.2,286047002.4,N
1610693675.0,286047001.5,N
1610693675.9,286047001.5,N
1610693695.8,286047002.5,N
1610693715.6,286047002.1,N
1610693735.5,286047003.4,N
1610693755.3,286047005.0,Y
1610693775.1,286047006.0,P
1610693795.9,286047006.9,N
1610693815.7,286047004.3,N
1610693835.6,286047000.9,N
1610693855.4,286046999.9,N
1610693875.2,286047002.7,N
1610693895.1,286047001.2,N
1610693896.0,286047001.2,N
1610693915.8,286047002.4,N
1610693935.6,286047003.9,N
1610693955.5,286047002.0,N
1610693975.3,286047004.4,N
1610693995.2,286047004.3,N
